Torna al catalogo

CZ-6A DEB

AttivoPO
NORAD 64658·DEBRIS·🇨🇳 China

Lanciato Aug 6, 2024 da Taiyuan Satellite Launch Center

Loading…

Prossimi Passaggi (prossime 24 ore)

TLE

AggiornatoSource: Space-Track

Epoca: Sep 13, 2026, 23:26 UTC

1 64658U 24140AEY 26256.97666029  .00000707  00000-0  33594-3 0  9997
2 64658  88.9984 265.3929 0059123 266.5412  92.9013 14.17546762 97978

Traccia CZ-6A DEB in tempo reale con AllMySat

Download on the App Store